GSAT0232 (GALILEO 32)

Last updated on Sun Dec 14 2025 00:02:36 GMT+0000 (Coordinated Universal Time)

1 61182U 24167A 25346.45230025 .00000016 00000+0 00000+0 0 9994 2 61182 55.2408 226.4386 0001943 211.6313 332.0573 1.70473504 7695
UTC large
Height (km)
Speed (km/s)
/
Latitude / Longitude
Inclination (degrees)
Orbital Period (minutes)
Azimuth
Elevation
Range (km)
Doppler Factor

Next 0 passes for location: London (51.5072 / 0.1276)

Sorry there are no passes over London.